TITAN 3C TRANSTAGE DEB, 3462

Orbit data source: Space-Track

TITAN 3C TRANSTAGE DEB, 3462 is space debris in LEO originally from a launch on Fri, 15 Oct 1965 UTC launched from the Air Force Eastern Test Range (AFETR). Debris objects in space refer to the collection of defunct objects orbiting the Earth. Examples of debris include non-operational satellites, rocket bodies, and fragments generated from explosions, collisions, or faulty payload assembly.

Loading next visibility...
Identifier
3462, 1965-082PT
Orbit
LEO
Country
Flag of USUS
Related business
Manufacturer
Unknown
Mission
Spacecraft
Bus & Motor
Unknown
Mass
Unknown
Launch date (UTC)
1965-10-15 (60 years ago)
Launch vehicle
Unknown
Launch site
Air Force Eastern Test Range (AFETR)
Object type
Payload
Rocket body
Debris
Shape & HBR
Unknown shape, 0.1 m
Radar Cross Section
Small (<0.1 m²)

Expand to show TLE details & history
Last TLE update: 1 day ago

TLE from 1 day ago
0 TITAN 3C TRANSTAGE DEB
1 03462U 65082PT  25288.83850211  .00011872  00000-0  45646-3 0  9996
2 03462  32.0187 123.3705 0011720 167.7948 192.2999 15.25186808226108
Epoch: 2025-10-15T20:07Z
TLE epoch observation values (Epoch: 2025-10-15T20:07:26.582Z)
Latitude
0.00001°
Longitude
156.90292°
Altitude
496.688 km
Speed
7.614 km/s
True Right ascension
08h 13m 28s
True Declination
0° 00' 00"
Sunlit
Object was in daylight at epoch
Visualization orbit readout
Latitude
Unknown
Longitude
Unknown
Altitude
Unknown
Speed
Unknown
Apparent Right ascension
Unknown
Apparent Declination
Unknown
Sunlit
N/A
Visualization observer readout
Local Sidereal Time
17:20:31
Azimuth
Unknown
Elevation
Unknown
Doppler factor
Unknown
Orbital elements
Apogee altitude
501.993 km
Perigee altitude
485.885 km
Semi-major axis
6,872.076 km
Eccentricity
0.00117
Inclination
32.0187°
RAAN
123.3705°
Arg. of periapsis
167.7948°
True anomaly
192.27133°
Mean anomaly
192.2999°
Eccentric anomaly
192.28561°
Mean motion
3.80988 °/min
Orbital period
94.49 mins
BSTAR
0.00045646

Documentation

Showing up to 5 results
|